This is the latest recevied weather packets stored in our database for station/object SP1BMW-13. If no packets are shown the sender has not sent any weather packets the latest 10 day(s).
| Time | Temp. | Humidity | Pressure | Rain* | Wind** | Luminosity | Snow |
|---|---|---|---|---|---|---|---|
| 1787912777 | 23.33° C | 53% | 1009.6 hPa | 0 mm | 1.79 m/s, 352° | 433 W/m² | - |
| 1787912718 | 23.33° C | 52% | 1009.7 hPa | 0 mm | 2.24 m/s, 25° | 367 W/m² | - |
| 1787912658 | 23.33° C | 51% | 1009.8 hPa | 0 mm | 0.89 m/s, 35° | 342 W/m² | - |
| 1787912597 | 23.33° C | 52% | 1009.7 hPa | 0 mm | 0.89 m/s, 60° | 335 W/m² | - |
| 1787912538 | 23.33° C | 53% | 1009.7 hPa | 0 mm | 0.89 m/s, 84° | 354 W/m² | - |
| 1787912477 | 23.33° C | 54% | 1009.5 hPa | 0 mm | 0.45 m/s, 62° | 377 W/m² | - |
| 1787912418 | 23.33° C | 53% | 1009.5 hPa | 0 mm | 1.79 m/s, 72° | 473 W/m² | - |
| 1787912357 | 23.33° C | 52% | 1009.6 hPa | 0 mm | 0.89 m/s, 234° | 438 W/m² | - |
| 1787912298 | 23.33° C | 53% | 1009.4 hPa | 0 mm | 2.68 m/s, 57° | 571 W/m² | - |
| 1787912238 | 23.33° C | 53% | 1009.7 hPa | 0 mm | 0.89 m/s, 61° | 565 W/m² | - |
| 1787912178 | 23.33° C | 54% | 1009.8 hPa | 0 mm | 1.79 m/s, 40° | 562 W/m² | - |
| 1787912117 | 22.78° C | 54% | 1009.8 hPa | 0 mm | 0.45 m/s, 49° | 510 W/m² | - |
| 1787912057 | 22.78° C | 54% | 1009.6 hPa | 0 mm | 0.45 m/s, 64° | 585 W/m² | - |
| 1787911997 | 22.78° C | 54% | 1009.5 hPa | 0 mm | 1.34 m/s, 185° | 552 W/m² | - |
| 1787911937 | 22.78° C | 53% | 1009.6 hPa | 0 mm | 2.24 m/s, 122° | 539 W/m² | - |
| 1787911877 | 22.22° C | 54% | 1009.4 hPa | 0 mm | 0.89 m/s, 97° | 539 W/m² | - |
| 1787911818 | 22.22° C | 56% | 1009.5 hPa | 0 mm | 0.89 m/s, 170° | 527 W/m² | - |
| 1787911757 | 22.22° C | 55% | 1009.3 hPa | 0 mm | 0.89 m/s, 31° | 479 W/m² | - |
| 1787911697 | 22.22° C | 55% | 1009.3 hPa | 0 mm | 0.89 m/s, 46° | 376 W/m² | - |
| 1787911637 | 22.22° C | 55% | 1009.5 hPa | 0 mm | 1.34 m/s, 87° | 397 W/m² | - |
| 1787911578 | 22.22° C | 56% | 1009.4 hPa | 0 mm | 2.24 m/s, 125° | 423 W/m² | - |
| 1787911517 | 22.22° C | 55% | 1009.4 hPa | 0 mm | 0.89 m/s, 53° | 364 W/m² | - |
| 1787911457 | 22.22° C | 54% | 1009.6 hPa | 0 mm | 2.68 m/s, 52° | 369 W/m² | - |
| 1787911398 | 21.67° C | 54% | 1009.4 hPa | 0 mm | 1.79 m/s, 123° | 322 W/m² | - |
| 1787911338 | 21.67° C | 55% | 1009.3 hPa | 0 mm | 0.89 m/s, 149° | 314 W/m² | - |
* Rain latest hour (hover to see other rain measurements)
** Current wind speed in m/s (hover to see current wind gust speed)